Find Starlink 5955

NORAD ID: 56342 Int'l Des: 2023-058 Owner: SPXS Country: US Constellation: starlink operational
LEOCIRCULARRETROGRADESSO

リアルタイム位置

3D地球を読み込み中...

Starlink 5955について

説明を読み込み中...

次回通過

Passes for default location (London). Set your location on the main map for personalized predictions.

高度履歴

Loading altitude history...

軌道要素

1 56342U 23058AB 26106.73624706 .00000113 00000-0 12062-4 0 9998
2 56342 97.6032 108.7558 0002176 91.2932 268.8544 15.05646786163921
Epoch: Apr 16, 2026 • Age: 20 hours

現在のステータス

高度 561.0 km
速度 7.59 km/s
衛星直下点 76.00°N, 82.85°W
打ち上げ日 Apr 27, 2023
運用期間 2.9 years
タイプ internet

技術仕様

分類 Payload
質量 300.00 kg
乾燥質量 260.00 kg
総質量 300.00 kg
長さ 0.20 m
直径 2.80 m
スパン 9.00 m
形状 Box + pan
製造者 SPXS
バスタイプ Starlink
フェーズステータス In Orbit
所有者/国 SPXS/US

Most Searched